Nassau, Bahamas

9:20 AM EST on February 25, 2018 (GMT -0500)
Nassau International

Weather History for MYNN - November, 2012

Change the Weather History Date:

Tuesday, November 13, 2012

  Actual Average Record
Temperature  
Mean Temperature 76 °F -  
Max Temperature 81 °F 81 °F 88 °F (2017)
Min Temperature 71 °F 66 °F 61 °F (2016)
Cooling Degree Days 11    
Growing Degree Days 26 (Base 50)    
Moisture  
Dew Point 68 °F    
Average Humidity 71    
Maximum Humidity 78    
Minimum Humidity 57    
Precipitation  
Precipitation 0.00 in 0.07 in - ()
Sea Level Pressure  
Sea Level Pressure 30.05 in    
Wind  
Wind Speed 11 mph ()    
Max Wind Speed 16 mph    
Max Gust Speed -    
Visibility 6.8 miles    
Events      
Averages and records for this station are not official NWS values.
T = Trace of Precipitation, MM = Missing Value Source: Averaged Metar Reports

Daily Weather History Graph

Daily Weather History Graph

Search for Another Location

Airport or City:

Trip Planner

Search our weather history database for the weather conditions in past years. The results will help you decide how hot, cold, wet, or windy it might be!

Date:

Astronomy

Nov. 13, 2012 Rise Set
Actual Time 6:25 AM EST 5:22 PM EST
Civil Twilight 6:01 AM EST 5:46 PM EST
Nautical Twilight 5:33 AM EST 6:14 PM EST
Astronomical Twilight 5:06 AM EST 6:41 PM EST
Moon 6:00 AM EST (11/13) 5:16 PM EST (11/13)
Length of Visible Light 11h 45m
Length of Day
10h 57m
Waning Crescent, 0% of the Moon is Illuminated
Nov 13
Waning Crescent
Nov 13
New
Nov 20
First Quarter
Nov 28
Full
Dec 6
Last Quarter

Hourly Weather History & Observations

Time (EST) Temp. Heat Index Dew Point Humidity Pressure Visibility Wind Dir Wind Speed Gust Speed Precip Events Conditions
12:00 AM 73.4 °F - 64.4 °F 73% 30.10 in 6.2 mi NNE 11.5 mph - N/A   Scattered Clouds
1:00 AM 75.2 °F - 68.0 °F 78% 30.09 in 6.2 mi NNE 13.8 mph - N/A   Scattered Clouds
2:00 AM 73.4 °F - 64.4 °F 73% 30.06 in 6.2 mi NNE 11.5 mph - N/A   Scattered Clouds
3:00 AM 73.4 °F - 64.4 °F 73% 30.04 in 6.2 mi NNE 16.1 mph - N/A   Scattered Clouds
4:00 AM 74 °F - 67 °F 74% 30.03 in 8 mi NNE 13.8 mph - -   Mostly Cloudy
4:00 AM 75.2 °F - 68.0 °F 78% 30.03 in 6.2 mi NNE 13.8 mph - N/A   Scattered Clouds
5:00 AM 75.2 °F - 64.4 °F 69% 30.04 in 6.2 mi NE 11.5 mph - N/A   Scattered Clouds
6:00 AM 73.4 °F - 62.6 °F 69% 30.06 in 6.2 mi NNE 13.8 mph - N/A   Scattered Clouds
7:00 AM 75 °F - 69 °F 75% 30.07 in 8 mi NNE 9.2 mph - -   Partly Cloudy
7:00 AM 75.2 °F - 68.0 °F 78% 30.07 in 6.2 mi NNE 9.2 mph - N/A   Scattered Clouds
8:00 AM 77.0 °F - 68.0 °F 74% 30.07 in 6.2 mi NNE 9.2 mph - N/A   Scattered Clouds
9:00 AM 77.0 °F - 68.0 °F 74% 30.09 in 6.2 mi NNE 9.2 mph - N/A   Scattered Clouds
10:00 AM 80 °F - 72 °F 70% 30.10 in 9 mi North 15.0 mph - -   Partly Cloudy
10:00 AM 80.6 °F 84.6 °F 71.6 °F 74% 30.10 in 6.2 mi North 15.0 mph - N/A   Scattered Clouds
11:00 AM 78.8 °F - 68.0 °F 69% 30.08 in 6.2 mi NNE 13.8 mph - N/A   Scattered Clouds
12:00 PM 78.8 °F - 68.0 °F 69% 30.07 in 6.2 mi NNE 15.0 mph - N/A   Scattered Clouds
1:00 PM 80 °F - 67 °F 57% 30.04 in 9 mi NNE 11.5 mph - -   Scattered Clouds
1:00 PM 80.6 °F 83.2 °F 68.0 °F 65% 30.03 in 6.2 mi NNE 11.5 mph - N/A   Partly Cloudy
2:00 PM 78.8 °F - 68.0 °F 69% 30.01 in 6.2 mi NNE 6.9 mph - N/A   Mostly Cloudy
3:00 PM 78.8 °F - 66.2 °F 65% 30.02 in 6.2 mi NNE 11.5 mph - N/A   Mostly Cloudy
4:00 PM 80 °F - 69 °F 62% 30.01 in 9 mi NNE 12.7 mph - -   Partly Cloudy
4:00 PM 80.6 °F 83.9 °F 69.8 °F 70% 30.01 in 6.2 mi NNE 12.7 mph - N/A   Mostly Cloudy
5:00 PM 77.0 °F - 66.2 °F 69% 30.02 in 6.2 mi NNE 10.4 mph - N/A   Mostly Cloudy
6:00 PM 77.0 °F - 66.2 °F 69% 30.01 in 6.2 mi NNE 11.5 mph - N/A   Mostly Cloudy
7:00 PM 77 °F - 68 °F 67% 30.03 in 9 mi NNE 11.5 mph - -   Partly Cloudy
7:00 PM 77.0 °F - 68.0 °F 74% 30.02 in 6.2 mi NNE 11.5 mph - N/A   Mostly Cloudy
8:00 PM 75.2 °F - 66.2 °F 73% 30.05 in 6.2 mi NE 11.5 mph - N/A   Mostly Cloudy
9:00 PM 77.0 °F - 68.0 °F 74% 30.06 in 6.2 mi NNE 11.5 mph - N/A   Mostly Cloudy
10:00 PM 77 °F - 69 °F 70% 30.07 in 9 mi North 9.2 mph - -   Partly Cloudy
10:00 PM 77.0 °F - 69.8 °F 78% 30.07 in 6.2 mi North 9.2 mph - N/A   Mostly Cloudy
11:00 PM 75.2 °F - 68.0 °F 78% 30.05 in 6.2 mi NE 11.5 mph - N/A   Mostly Cloudy